STARLINK-11437 [DTC] (62884 NORAD) Tracking and Keplerian Element Data

This shows tracking and keplerian element data for the satellite.

Feedback or suggestion? Click here.




ElementValue
Catalog62884
NameSTARLINK-11437 [DTC]
Epoch Orbit5096
Epoch Day354.20222955
Epoch Year2025
RAAN300.7263
Inclination42.9994
Eccentricity0.0002215
Argument of Perigee247.694
Mean Anonmoly112.3693
Mean Motion15.7088125
Decay Rate0.0022848
L11 62884U 25024F 25354.20222955 .00228480 00000+0 17325-2 0 9990
L22 62884 42.9994 300.7263 0002215 247.6940 112.3693 15.70881250 50962



Live tracking and technical data element details for STARLINK-11437 [DTC] (NORAD 62884). STARLINK-11437 [DTC] can be tracked NOW for your location showing map with azimuth and elevation plus other details from your city location.







IsCatalogInMostPopularTable: catalog: 62884, numindb: 1
Update: records affected: 1



GetName: 62884 STARLINK-11437 [DTC]

Hit Count: updated at: Tue, 10 Feb 2026 03:49:55 GMT